Вернуться в каталог

USA 125 DEB

АктивенHEO
NORAD 23947·DEBRIS·🇺🇸 United States

Запущен Jul 3, 1996 с Cape Canaveral Space Force Station

Loading…

Ближайшие Пролёты (ближайшие 24 часа)

TLE

СвежийSource: Space-Track

Эпоха: Sep 13, 2026, 09:04 UTC

1 23947U 96038C   26256.37815272  .00000412  00000-0  12705-3 0  9992
2 23947  55.3108 163.4149 4991675 250.1168  50.9745  5.57417529145499

Отслеживайте USA 125 DEB в реальном времени с AllMySat

Download on the App Store